Main page
Satellite images Climate Cyclones Lightning AirportsFAQ Languages Contact Newsletter About
Weather : Europe Africa North America South America Asia Australia-Oceania Others

chiang-mai-th, Lampang, Lampang Airport

48328

latitude: , longitude: Thailand, elevation: 18-17N m


METAR: VTCL 220200Z 01003KT 7000 -RA FEW005 BKN050 OVC100 23/22 Q1016 NOSIG